Hourly Data Report for October 01, 2017

All times are specified in Local Standard Time (LST). Add 1 hour to adjust for Daylight Saving Time where and when it is observed.

SHEARWATER RCS
NOVA SCOTIA

44°37'47.000" N
63°30'48.000" W
24.00 m
8205092
71264
AAW

Download Data

Hourly Data (October 2017)
Hourly Data Report for October 1, 2017
Temp Definition
°C
Dew Point Temp Definition
°C
Rel Hum Definition
%
Wind Dir Definition
10's deg

Wind Spd Definition
km/h
Visibility Definition
km
Stn Press Definition
kPa
Hmdx Definition


Wind Chill Definition


Weather Definition


TIME
00:00 7.4 3.6 77 1 5   102.21     LegendNANA
01:00 7.0 3.8 80 2 9   102.20     LegendNANA
02:00 5.9 3.2 83 31 2   102.20     LegendNANA
03:00 5.1 3.7 90 33 7   102.19     LegendNANA
04:00 4.3 2.7 89 33 4   102.18     LegendNANA
05:00 3.8 2.5 91 32 1   102.15     LegendNANA
06:00 5.1 3.7 90 32 6   102.14     LegendNANA
07:00 6.2 4.8 91 32 6   102.17     LegendNANA
08:00 9.3 5.3 76 24 5   102.20     LegendNANA
09:00 11.2 3.6 60 26 9   102.18     LegendNANA
10:00 12.6 4.1 56 26 9   102.14     LegendNANA
11:00 13.5 3.4 51 26 9   102.07     LegendNANA
12:00 14.7 4.1 49 26 9   102.02     LegendNANA
13:00 15.6 3.0 43 25 10   101.92     LegendNANA
14:00 15.5 4.2 47 23 17   101.83     LegendNANA
15:00 15.5 4.2 47 23 17   101.77     LegendNANA
16:00 15.3 5.6 52 23 16   101.72     LegendNANA
17:00 14.7 6.5 58 23 15   101.67     LegendNANA
18:00 13.3 7.6 69 23 11   101.67     LegendNANA
19:00 12.0 8.1 77 23 6   101.71     LegendNANA
20:00 13.0 6.1 63 29 9   101.74     LegendNANA
21:00 11.8 4.7 62 31 14   101.74     LegendNANA
22:00 11.0 3.3 59 32 19   101.69     LegendNANA
23:00 9.8 3.8 66 31 18   101.65     LegendNANA

Notes on Data Quality.

Legend

  • E = Estimated
  • M = Missing
  • NA = Not Available
  • ‡ = Partner data that is not subject to review by the National Climate Archives
Date modified: